Location: Kuppenheim
(48.8299°N, 8.2568°E)
Time: 09:22:11
(UTC+00:00)

EXPRESS MD2 - Pass Details

Date: 20 June 2021
Orbit: 262 x 3945 km, 49.9° (Epoch: 03 August)

Event Time Altitude Azimuth Distance (km) Brightness Sun altitude
Exits shadow 01:43:02 - 245° (WSW) 4,876 7.6 -11.7°
Reaches altitude 10° 01:45:21 10° 245° (WSW) 4,042 7.2 -11.5°
Maximum altitude 01:54:39 76° 162° (SSE) 955 4.4 -10.7°
Drops below altitude 10° 01:59:01 10° 76° (ENE) 1,968 6.9 -10.3°
Sets 02:00:39 0° 75° (ENE) 2,628 7.7 -10.2°
